Location: Apeadero de Los Molinos-Guadarrama
(40.7091°N, 4.0689°W)
Time: 09:33:11
(UTC+00:00)

Cosmos 1933 - Pass Details

Date: 14 May 2021
Orbit: 547 x 562 km, 82.5° (Epoch: 20 June)

Event Time Altitude Azimuth Distance (km) Brightness Sun altitude
Rises 19:56:43 0° 180° (S) 2,721 6.6 -6.0°
Reaches altitude 10° 19:58:53 10° 178° (S) 1,829 5.7 -6.3°
Maximum altitude 20:02:53 67° 95° (E) 601 3.3 -7.0°
Drops below altitude 10° 20:06:53 10° 13° (NNE) 1,835 6.3 -7.6°
Sets 20:09:04 0° 11° (N) 2,731 7.2 -8.0°
